Weather in Arhangelsk

Russia / Arkhangel'skaya Oblast'     64°32′21″N   40°31′00″E
temp.,
°C
wind,
m/s
gust,
m/s
humid.,
%
clouds,
%
prec.,
mm/h
press.,
hPa
HPBL,
m
7 may, fri
fri700:00+4e71552100 0.1 999886
03:00+3e81784100 2.2 995778
06:00+5se41093100 1.8 995581
09:00+7ssw51170100 1.9 9971340
12:00+9s5117178 0.1 10001414
15:00+10ssw596067 0.3 10011680
18:00+9sw476225 0.1 10031343
21:00+7sw3667100 0.2 1005314
8 may, sat
sat800:00+6sw1370100 0.0 1006102
03:00+5ssw2580100 0.0 1007265
06:00+5s258199 0.0 1008325
09:00+7ssw367377 0.1 1009939
12:00+10sse3754100 0.1 10091541
15:00+13sse51051100 0.1 10071770
18:00+11sse51460100 0.6 10061834
21:00+8s61381100 1.1 10071356
9 may, sun
sun900:00+8sse51186100 0.8 10061244
03:00+7sse3892100 3.4 10051118
06:00+6w3595100 2.7 1006485
09:00+4nw488899 3.4 1009654
12:00+5nw467092 0.0 1011934
15:00+7nw4648100 0.0 10131000
18:00+6nnw3651100 0.0 1014564
21:00+3wsw116720 0.0 101510
10 may, mon
mon1000:00+2ssw22735 0.0 101634
03:00+2sw24804 0.0 101863
06:00+5ssw27685 0.0 1019204
09:00+9ssw595098 0.0 10191230
12:00+12sw5939100 0.1 10192509
15:00+10wsw5761100 0.4 10211362
18:00+10sw366889 0.2 10211228
21:00+8ssw3779100 0.3 1022400
11 may, tue
tue1100:00+7ssw378697 0.0 1021440
03:00+7s3794100 0.9 1020380
06:00+9ssw41294100 2.1 1018607
09:00+11wsw41191100 2.5 1019924
12:00+15wsw497496 0.0 10201032
15:00+19w51256100 0.0 10201688
18:00+19wsw51156100 0.0 10201555
21:00+15wsw396926 0.0 1020275